Погода Большерецкий

Погода Большерецкий : погода сейчас, прогноз погоды и архив. Всё, что Вы хотите узнать о погоде Большерецкий!

Поиск расширенной информации на нашем сайте:

Другие новости

Новости СМИ2

Главная страница сайта

Новости сайта

03.07.2017

Напоминаем, что на нашем специализированном сайте Метеоцентр.Азия вы можете получить высокодетализированные автоматические прогнозы погоды по пунктам России, СНГ и мира в авиационном формате (включающие направление и скорость ветра, видимость, явления погоды, количество и форму облачности, нижнюю и верхнюю границу облачности).


Погода Большерецкий - сегодня

Время (UTC), дата Ветер
(°,м/с) 
Видим.   Явления Облачность Т
(°С)
Тd
(°С)
f(%) Тe
(°С)
Pmin
(гПа)
dP
(гПа)
Po
(мм)
O2
(г/м3)
Тmin Tmax R s Состояние
почвы
00 13.08.18 190 (Ю) 20000 м    10/8 600 м средняя 
[Sc|Ac und]
+12.7 +9.6 81 +12  1016.9  0.2  760  291           
03 13.08.18 200 (Ю) 20000 м    10/8 600 м средняя 
[Sc|Ac und]
+14.7 +10.5 76 +17  1016.4  -0.5  760  289           
06 13.08.18 180 (Ю) 20000 м  слаб. ливневой дождь  10/8 600 м кучево-дожд., средняя 
[Cb cap|Ac und]
+13.6 +11.5 87 +17  1016  -0.4  759  289           
12 13.08.18 150 (ЮВ) 20000 м  слаб. ливневой дождь  10/10 600 м кучево-дожд. 
[Cb cap]
+11.9 +11.4 97 +15  1015.5  -0.2  759  291           
15 13.08.18 130 (ЮВ) 10 км  слаб. ливневой дождь  10/10 600 м кучево-дожд. 
[Cb cap]
+11.5 +11 97 +12  1015  -0.5  759  291           
18 13.08.18 090 (В) 20000 м  слаб. ливневой дождь  9/9 600 м кучево-дожд. 
[Cb cap]
+11.4 +11.2 99 +14  1014.4  -0.6  758  291           
21 13.08.18 130 (ЮВ) 10 км  слаб. ливневой дождь  10/10 300 м кучево-дожд. 
[Cb cap]
+12 +11.8 99 +15  1014.4  758  290  +11.4       
03 14.08.18 130 (ЮВ) 10 км  слаб. ливневой дождь  10/10 300 м кучево-дожд. 
[Cb cap]
+13.8 +12.7 93 +18  1013.4  -0.7  757  288           
09 14.08.18 110 (В) 3{10}  10 км  слаб. ливневой дождь  10/10 300 м кучево-дожд. 
[Cb cap]
+11.7 +11.4 98 +14  1013.3  -0.3  757  290    +14  18     
12 14.08.18 110 (В) 10 км  слаб. ливневой дождь  10/10 300 м кучево-дожд. 
[Cb cap]
+11.4 +11 97 +14  1013.5  0.2  757  291           
15 14.08.18 120 (ЮВ) 10 км  слаб. ливневой дождь  10/10 300 м кучево-дожд. 
[Cb cap]
+10.9 +10.2 95 +12  1013.6  0.1  757  292           
18 14.08.18 080 (В) 10 км  слаб. ливневой дождь{морось}  10/10 300 м кучево-дожд. 
[Cb cap]
+10.7 +10.5 99 +13  1013.5  0.1  757  292           
21 14.08.18 090 (В) 10 км  слаб. ливневой дождь  10/8 600 м кучево-дожд., средняя 
[Cb cap|Ac und]
+11.6 +10.5 93 +13  1013.9  0.4  758  291  +10.6       
03 15.08.18 240 (ЮЗ) 10 км  слаб. ливневой дождь  10/10 600 м кучево-дожд. 
[Cb cap]
+13.2 +12.6 96 +19  1013.9  -0.7  758  289           
06 15.08.18 230 (ЮЗ) 10 км  слаб. ливневой дождь  10/10 600 м кучево-дожд. 
[Cb cap]
+12.3 +12.1 99 +18  1013.5  -0.4  757  290           
12 15.08.18 270 (З) 10 км  слаб. ливневой дождь  10/10 600 м кучево-дожд. 
[Cb cap]
+11.6 +11.6 100 +16  1013.1  -0.2  757  290           
15 15.08.18 тихо ()   н/о    н/о 
+11.3 +11.3 100 +14  1012.8  -0.3  757  291           
18 15.08.18 100 (В) 20000 м  слаб. ливневой дождь  10/8 600 м кучево-дожд., средняя 
[Cb cap|Ac und]
+11 +10.9 99 +14  1012.1  -0.8  756  291           
21 15.08.18 090 (В) 20000 м  {ливн. осадки}  10/8 600 м кучево-дожд., средняя 
[Cb cap|Ac und]
+11.8 +11.4 97 +16  1012.1  756  290  +10.8       
03 16.08.18 290 (З) 20000 м    9/6 600 м кучево-дожд., средняя 
[Cb cap|Ac trans]
+14.2 +11.7 85 +17  1010.6  -0.7  755  287           
06 16.08.18 320 (СЗ) 20000 м    8/6 600 м средняя 
[Sc|Ac trans]
+14.6 +11 79 +17  1010.3  -0.3  755  287           
12 16.08.18 320 (СЗ) 20000 м    ясно 
+10 +9.8 99 +11  1011.3  0.5  756  292           
15 16.08.18 340 (С) 0200 м  туман  ?/?  
+8.5 +8.5 100 +9  1011.2  -0.2  756  294           
18 16.08.18 060 (СВ) 20000 м  в посл. час туман  3/3 600 м 
[Sc]
+6.1 +6.1 100 +7  1011.7  0.5  756  297           
21 16.08.18 120 (ЮВ) 20000 м  в посл. час туман  8/8 300 м 
[St]
+9 +9 100 +10  1012.4  0.7  757  294  +5.5         
Время (UTC), дата Ветер
(°,м/с) 
Видим.   Явления Облачность Т
(°С)
Тd
(°С)
f(%) Тe
(°С)
Pmin
(гПа)
dP
(гПа)
Po
(мм)
O2
(г/м3)
Тmin Tmax R s Состояние
почвы

Для получения пояснительной информации подведите курсор к названию столбца.

ПОГОДА Большерецкий - архив

Всё, что Вы хотите узнать о погоде Большерецкий - удобно и подробно!

Выберите нужную дату (начиная с 1 января 2015* года) и нажмите кнопку "Найти".
Будут отображены архивные сводки погоды по пункту Большерецкий, начиная с указанной даты.


Отображать данные в формате CSV (для использования в таблицах Excel)


Внимание! Наш архив погоды предназначен исключительно для личного некоммерческого использования в познавательных целях. Если Вам необходимы официальные справки о состоянии погоды (для производственных, юридических, коммерческих и т.п. целей), обращайтесь в органы Росгидромета.

*Примечание: данная дата относится к архиву по метеостанциям СССР (Россия, СНГ, Балтия).
Архив по метеостанциям Зарубежной Европы и Азии (кроме Китая) хранится 10 дней, по другим регионам земного шара (Китай, Африка, Америка, Австралия, Океания) - 1 день.

Большерецкий - район местоположения метеостанции


Название, широта, долгота, высота метеостанции:
Большерецкий 52.9°ш. 156.6°д. 27 м над ур. моря [Российская Федерация]

Дополнительная информация

В oтличие oт бoльшинства пoгoдных сайтoв мы публикуем пoдрoбную метеoинфoрмацию в детальнoм прoфессиoнальнoм фoрмате.

Характеристики температуры и влажнoсти вoздуха измеряются на высoте 2 м в тени вдали oт зданий и деревьев.
Скoрoсть ветра измеряется на высoте 10 м (на урoвне рoста челoвека скoрoсть ветра ниже в 1.5-2 раза). Если метеoстанция нахoдится в гoрoде или в лесу, тo скoрoсть ветра занижена на 2-4 м/с пo сравнению с oткрытым местoм. Скoрoсть ветра над акватoриями крупных рек и oзёр, а также на вершинах хoлмoв на 2-5 м/с выше, чем в oбычных услoвиях.
Атмoсфернoе давление в разных тoчках местнoсти мoжет значительнo oтличаться oт давления на метеoстанции, в зависимoсти oт услoвий рельефа (при пoдъёме на 10 м давление пoнижается примернo на 1 мм рт.ст.).